Terminal Aerodrome Forecast
Issued by NWS Sterling, VA

Home | Current Version | Previous Version | Text Only | Print | Product List | Glossary On
Versions: 1 2 3 4 5 6 7 8 9 10 11 12 13 14 15 16 17 18 19 20 21 22 23 24 25 26 27 28
000
FTUS41 KLWX 021432 AAC
TAFBWI
TAF AMD
KBWI 021432Z 0215/0318 VRB03KT P6SM SCT060 BKN250
     FM031400 21007KT P6SM FEW250=

USA.gov is the U.S. government's official web portal to all federal, state and local government web resources and services.